Showing default

TYCHE, 60496

Orbit data source: Space-Track

TYCHE, 60496 is a UK payload satellite in SSO that was launched on Fri, 16 Aug 2024 UTC via an FALCON 9 launch vehicle from the Air Force Western Test Range (AFWTR). Payload-class satellites include a variety of spacecraft equipped with specific instruments for various scientific and technological missions. These include communications satellites like Starlink; space stations such as the ISS; scientific satellites like the Hubble; Earth observation satellites from companies like Planet Labs, Umbra, and HawkEye 360; GPS; miniature CubeSats for education and research; and military/defense satellites.

Loading next visibility...
Identifier
60496, 2024-149AE
Orbit
SSO
Country
Flag of UKUK
Related business
Manufacturer
SSTL
Mission
Operational Commercial Imaging
Bus & Motor
CARBONITE+, Unknown motor
Mass
150 kg wet, 150 kg dry
Launch date (UTC)
2024-08-16 (1 year ago)
Launch vehicle
FALCON 9
Launch site
Air Force Western Test Range (AFWTR)
Object type
Payload
Rocket body
Debris
Shape & HBR
Box, 0.5 m
Radar Cross Section
0.780 m², Large (>1 m²)

Expand to show TLE details & history
Last TLE update: 9 hours ago

TLE from 9 hours ago
0 TYCHE
1 60496U 24149AE  25297.78184435  .00007406  00000-0  29831-3 0  9993
2 60496  97.3994  13.4457 0005351  57.5736 302.6019 15.25134209 66004
Epoch: 2025-10-24T18:45Z
TLE epoch observation values (Epoch: 2025-10-24T18:45:51.351Z)
Latitude
-0.00003°
Longitude
58.55993°
Altitude
491.501 km
Speed
7.62 km/s
True Right ascension
00h 53m 46s
True Declination
0° 00' 00"
Sunlit
Object was in full shadow at epoch
Visualization orbit readout
Latitude
Unknown
Longitude
Unknown
Altitude
Unknown
Speed
Unknown
Apparent Right ascension
Unknown
Apparent Declination
Unknown
Sunlit
N/A
Visualization observer readout
Local Sidereal Time
23:01:53
Azimuth
Unknown
Elevation
Unknown
Doppler factor
Unknown
Orbital elements
Apogee altitude
491.015 km
Perigee altitude
483.667 km
Semi-major axis
6,865.478 km
Eccentricity
0.00054
Inclination
97.3994°
RAAN
13.4457°
Arg. of periapsis
57.5736°
True anomaly
302.55023°
Mean anomaly
302.6019°
Eccentric anomaly
302.57606°
Mean motion
3.81537 °/min
Orbital period
94.36 mins
BSTAR
0.00029831
Loading maneuver chart data...
Computing Atmospheric mass density...
Loading historical data...
Loading historical data...
Loading historical data...
Loading historical data...
Loading historical data...
Loading historical data...
Loading historical data...

Documentation

Showing up to 5 results
|